Home   Weather   Pomona   Past weeks

Flag for USA Past Weather in Pomona, California, USA — Yesterday and Last 2 Weeks

Now
92 °F

Passing clouds.


Feels Like: 88 °F
Forecast: 63 / 87 °F
Wind: 15 mph from Southwest

Location: Chino Airport

Current Time: Oct 1, 2016 at 3:20:52 PM

Latest Report: Oct 1, 2016 at 2:53 PM


Visibility: 10 mi

Pressure: 29.91 "Hg

Humidity: 21%

Dew Point: 47 °F

Location of PomonaLocation

Past Weather in Pomona — Graph

°F

Pomona Temperature Yesterday

Maximum temperature yesterday: 96 °F (at 1:53 PM)
Minimum temperature yesterday: 64 °F (at 3:53 AM)
Average temperature yesterday: 79 °F

High & Low Weather Summary for the Past Weeks

 TemperatureHumidityPressure
High107 °F (Sep 18, 1:53 PM)87% (Sep 21, 6:53 AM)30.05 "Hg (Sep 21, 6:53 AM)
Low53 °F (Sep 23, 4:53 AM)4% (Sep 18, 1:53 PM)29.80 "Hg (Sep 27, 2:53 PM)
Average77 °F45%29.93 "Hg
* Reported Sep 16 1:53 PM — Oct 1 1:53 PM, Pomona, Weather by CustomWeather, © 2016

Note: Actual official high and low records may vary slightly from our data, if they occured in-between our weather recording intervals... More about our weather records

Advertising

Pomona Weather History for the Previous 24 Hours

Scroll right to see more
 ConditionsComfort  
Time TempWeatherWind HumidityBarometerVisibility
1:53 PM
Sat, Oct 1
92 °FPassing clouds.12 mph20%29.92 "Hg10 mi
12:53 PM91 °FPassing clouds.9 mph21%29.95 "Hg10 mi
11:53 AM88 °FPassing clouds.5 mph24%29.97 "Hg10 mi
10:53 AM84 °FSunny.No wind33%30.00 "Hg10 mi
9:53 AM78 °FSunny.No wind37%30.01 "Hg10 mi
8:53 AM73 °FSunny.No wind46%30.01 "Hg10 mi
7:53 AM67 °FSunny.No wind61%30.00 "Hg10 mi
6:53 AM60 °FSunny.No wind75%29.99 "Hg10 mi
5:53 AM63 °FClear.No wind68%29.98 "Hg7 mi
4:53 AM63 °FClear.No wind65%29.97 "Hg7 mi
3:53 AM65 °FClear.No wind59%29.97 "Hg7 mi
2:53 AM66 °FClear.No wind56%29.98 "Hg7 mi
1:53 AM66 °FClear.No wind56%29.98 "Hg8 mi
12:53 AM68 °FClear.No wind57%29.98 "Hg6 mi
11:53 PM
Fri, Sep 30
70 °FClear.3 mph55%29.98 "Hg5 mi
10:53 PM71 °FClear.No wind53%29.98 "Hg7 mi
9:53 PM74 °FClear.No wind48%29.96 "Hg7 mi
8:53 PM78 °FClear.8 mph40%29.94 "Hg9 mi
7:53 PM79 °FClear.5 mph35%29.93 "Hg10 mi
6:53 PM82 °FPassing clouds.9 mph32%29.92 "Hg10 mi
5:53 PM88 °FPassing clouds.15 mph29%29.91 "Hg10 mi
4:53 PM92 °FPassing clouds.16 mph27%29.91 "Hg10 mi
3:53 PM94 °FPassing clouds.16 mph24%29.92 "Hg10 mi
Weather by CustomWeather, © 2016

See weather overviewHow to use our weather pages